Terminal Aerodrome Forecast
Issued by NWS

Home | Current Version | Previous Version | Text Only | Print | Product List | Glossary On
Versions: 1 2 3 4 5 6 7 8 9 10 11 12 13 14 15 16 17 18 19 20 21 22
000
FTUS41 KBTV 261159 CCA
TAFMSS
TAF COR
KMSS 261159Z 2612/2712 00000KT P6SM SKC
      TEMPO 2612/2613 1/2SM FG VV002
     FM261300 VRB03KT P6SM SCT250
     FM261600 23005KT P6SM FEW050 SCT200
     FM262300 VRB03KT P6SM BKN200
     FM270500 VRB03KT 5SM BR BKN200=

USA.gov is the U.S. government's official web portal to all federal, state and local government web resources and services.